Powrót do katalogu

COSMOS 1275 DEB

AktywnyPO
NORAD 15766·DEBRIS·🇷🇺 Russia

Wystrzelony Jun 4, 1981 z Plesetsk Cosmodrome

Loading…

Następne Przeloty (najbliższe 24 godziny)

TLE

ŚwieżeSource: Space-Track

Epoka: Sep 14, 2026, 21:01 UTC

1 15766U 81053KB  26257.87620204  .00004737  00000-0  12678-2 0  9990
2 15766  82.9337 218.8698 0003923 328.2905  31.8055 14.48131421127121

Śledź COSMOS 1275 DEB w czasie rzeczywistym z AllMySat

Download on the App Store